User: anonymous   Login
Location: Unspecified
(0.0000°N, 0.0000°E)
Time: 18:04:00
(UTC+00:00)
Language:

DUCHIFAT 1 - Orbit

View from above orbital plane
View from above orbital plane
View from above satellite
View from above satellite

Ground track
Ground track

The orbit data is extracted from the following two-line orbital elements,

1 40021U 14033M   19111.54531280  .00000416  00000-0  48372-4 0  9998
2 40021  97.9232  35.9522 0011550 239.3635 120.6444 14.90580277262880
Epoch (UTC): 21 April 2019 13:05:15
Eccentricity: 0.0011550
inclination: 97.9232°
perigee height: 588 km
apogee height: 604 km
right ascension of ascending node: 35.9522°
argument of perigee: 239.3635°
revolutions per day: 14.90580277
mean anomaly at epoch: 120.6444°
orbit number at epoch: 26288

The dashed part of the orbit path shows where the satellite is in the earth's shadow,  

DLR